Location: Newark
(48.4472°N, 1.4892°E)
Time: 01:54:43
(UTC+00:00)

Vanguard 2 Rocket - Pass Details

Date: 21 November 2019
Orbit: 554 x 3326 km, 32.9° (Epoch: 09 December)

Event Time Altitude Azimuth Distance (km) Brightness Sun altitude
Exits shadow 03:02:29 11° 144° (SE) 2,782 9.5 -40.5°
Drops below altitude 10° 03:03:02 10° 141° (SE) 2,935 9.7 -40.4°
Sets 03:07:43 0° 123° (ESE) 4,450 10.9 -39.6°
